Project,Study,Ord_Occ,Event_Num,Cast_ID,Date_Time_UTC,Date_Time_PST,Lat_Dec,Lon_Dec,Sta_ID,Line,Sta,Depth,Pressure,PrQ,Temp1,Temp1Q,Temp2,Temp2Q,TempAve,Salt1,Salt1Q,Salt1_Corr,Salt2,Salt2Q,Salt2_Corr,SaltAve_Corr,Ox1,Ox1Q,Ox1_CruiseCorr,Ox1_StaCorr,Ox2,Ox2Q,Ox2_CruiseCorr,Ox2_StaCorr,OxAve_StaCorr,Ox1uM,Ox1uM_CruiseCorr,Ox1uM_StaCorr,Ox2uM,Ox2uM_CruiseCorr,Ox2uM_StaCorr,OxAveuM_StaCorr,FluorV,FluorQ,EstChl_CruiseCorr,EstChl_StaCorr,ISUSV,ISUSQ,EstNO3_CruiseCorr,EstNO3_StaCorr,SigThetaTS1,SigThetaTS1Q,SigThetaTS2,SigThetaTS2Q,BAT,XMiss,TransQ,pH,pHQ,SPAR,SPARQ,PAR,PARQ,PoT1,PoT2,DynHt,SVA,OxSat1,OxSat2,BTL_Depth,BTL_Temp,SaltB,OxB,OxBuM,Chl-a,Phaeo,NO3,NO2,NH4,PO4,SIL
CalCOFI,2007SR,023,24,2007_023u,17-Jul-2020 23:32:56,17-Jul-2020 15:32:56,32.08548,-120.63816,090.0 070.0,090.0,070.0,516.000,520.277,,6.0705,,6.0709,,6.0707,34.3119,,34.3121,34.3136,,34.3152,34.3137,0.2914,,0.2868,0.2905,1.8337,,0.4364,0.5276,0.4091,12.671,12.7392,23.6110,79.741,,33.3717,28.4914,0.0309,,,,1.7709,,39.4870,38.583,27.0058,,27.0071,,0.6287,85.4567,,7.533,,9.4224E+02,,1.0000E-12,,6.0248,6.0252,0.9071,,4.205,26.465,,,,,,,,,,,,
CalCOFI,2007SR,023,24,2007_023u,17-Jul-2020 23:33:01,17-Jul-2020 15:33:01,32.08548,-120.63816,090.0 070.0,090.0,070.0,515.000,519.268,,6.0744,,6.0751,,6.0748,34.3119,,34.3121,34.3133,,34.3149,34.3135,0.2899,,0.2852,0.2889,1.8289,,0.4249,0.5154,0.4022,12.607,12.6723,23.5548,79.530,,32.9250,28.2399,0.0319,,,,1.7743,,39.5825,38.678,27.0052,,27.0062,,0.6287,85.4561,,7.533,,9.4420E+02,,1.0000E-12,,6.0288,6.0295,0.9075,,4.184,26.398,515,6.074,34.3143,0.272,11.85,,,39.45,0.00,0.00,3.17,77.32
CalCOFI,2007SR,023,24,2007_023u,17-Jul-2020 23:33:07,17-Jul-2020 15:33:07,32.08548,-120.63816,090.0 070.0,090.0,070.0,514.000,518.258,,6.0736,,6.0736,,6.0736,34.3116,,34.3118,34.3129,,34.3145,34.3132,0.2904,,0.2857,0.2894,1.8250,,0.4156,0.5055,0.3975,12.627,12.6932,23.5723,79.361,,32.5672,28.0698,0.0327,,,,1.7821,,39.8015,38.898,27.0051,,27.0061,,0.6287,85.4562,,7.533,,9.4091E+02,,1.0000E-12,,6.0281,6.0281,0.9083,,4.191,26.341,,,,,,,,,,,,
CalCOFI,2007SR,023,24,2007_023u,17-Jul-2020 23:33:08,17-Jul-2020 15:33:08,32.08548,-120.63816,090.0 070.0,090.0,070.0,513.000,517.249,,6.0731,,6.0733,,6.0732,34.3118,,34.3120,34.3131,,34.3147,34.3134,0.2944,,0.2899,0.2936,1.8249,,0.4154,0.5052,0.3994,12.803,12.8770,23.7271,79.359,,32.5630,28.1451,0.0320,,,,1.7825,,39.8127,38.909,27.0053,,27.0064,,0.6287,85.4562,,7.533,,9.4100E+02,,1.0000E-12,,6.0277,6.0279,0.9083,,4.249,26.340,,,,,,,,,,,,
CalCOFI,2007SR,023,24,2007_023u,17-Jul-2020 23:33:09,17-Jul-2020 15:33:09,32.08548,-120.63817,090.0 070.0,090.0,070.0,512.000,516.239,,6.0755,,6.0758,,6.0757,34.3120,,34.3122,34.3132,,34.3148,34.3135,0.2923,,0.2877,0.2914,1.8245,,0.4144,0.5042,0.3978,12.711,12.7809,23.6462,79.341,,32.5249,28.0856,0.0318,,,,1.7829,,39.8240,38.920,27.0051,,27.0061,,0.6287,85.4562,,7.533,,9.4276E+02,,1.0000E-12,,6.0302,6.0305,0.9083,,4.219,26.335,,,,,,,,,,,,
CalCOFI,2007SR,023,24,2007_023u,17-Jul-2020 23:33:10,17-Jul-2020 15:33:10,32.08548,-120.63817,090.0 070.0,090.0,070.0,511.000,515.230,,6.0794,,6.0790,,6.0792,34.3116,,34.3118,34.3129,,34.3145,34.3132,0.2912,,0.2866,0.2903,1.8155,,0.3929,0.4813,0.3858,12.663,12.7308,23.6040,78.947,,31.6907,27.6474,0.0329,,,,1.7834,,39.8380,38.934,27.0044,,27.0055,,0.6289,85.4524,,7.533,,9.4628E+02,,1.0000E-12,,6.0341,6.0338,0.9083,,4.204,26.207,,,,,,,,,,,,
CalCOFI,2007SR,023,24,2007_023u,17-Jul-2020 23:33:12,17-Jul-2020 15:33:12,32.08548,-120.63816,090.0 070.0,090.0,070.0,510.000,514.220,,6.0793,,6.0774,,6.0784,34.3117,,34.3119,34.3134,,34.3150,34.3135,0.2913,,0.2867,0.2904,1.8197,,0.4030,0.4920,0.3912,12.669,12.7371,23.6093,79.132,,32.0824,27.8459,0.0318,,,,1.7841,,39.8577,38.954,27.0044,,27.0060,,0.6287,85.4560,,7.533,,9.5182E+02,,1.0000E-12,,6.0341,6.0323,0.9083,,4.205,26.267,,,,,,,,,,,,
CalCOFI,2007SR,023,24,2007_023u,17-Jul-2020 23:33:14,17-Jul-2020 15:33:14,32.08548,-120.63816,090.0 070.0,090.0,070.0,509.000,513.211,,6.0945,,6.0962,,6.0954,34.3110,,34.3112,34.3125,,34.3141,34.3127,0.2945,,0.2900,0.2937,1.8173,,0.3972,0.4859,0.3898,12.806,12.8801,23.7297,79.026,,31.8579,27.7938,0.0321,,,,1.7840,,39.8549,38.951,27.0020,,27.0029,,0.6290,85.4499,,7.533,,9.5062E+02,,1.0000E-12,,6.0494,6.0511,0.9083,,4.252,26.243,,,,,,,,,,,,
CalCOFI,2007SR,023,24,2007_023u,17-Jul-2020 23:33:15,17-Jul-2020 15:33:15,32.08548,-120.63816,090.0 070.0,090.0,070.0,508.000,512.201,,6.1076,,6.1077,,6.1077,34.3092,,34.3094,34.3107,,34.3123,34.3109,0.2946,,0.2901,0.2938,1.8106,,0.3812,0.4688,0.3813,12.811,12.8853,23.7341,78.737,,31.2461,27.4901,0.0320,,,,1.7837,,39.8464,38.943,26.9989,,27.0000,,0.6291,85.4479,,7.533,,9.4835E+02,,1.0000E-12,,6.0626,6.0626,0.9083,,4.255,26.154,,,,,,,,,,,,
CalCOFI,2007SR,023,24,2007_023u,17-Jul-2020 23:33:15,17-Jul-2020 15:33:15,32.08548,-120.63816,090.0 070.0,090.0,070.0,507.000,511.192,,6.1084,,6.1086,,6.1085,34.3092,,34.3094,34.3106,,34.3122,34.3108,0.2996,,0.2954,0.2991,1.8094,,0.3784,0.4657,0.3824,13.026,13.1097,23.9231,78.683,,31.1317,27.5274,0.0321,,,,1.7833,,39.8352,38.932,26.9987,,26.9998,,0.6287,85.4563,,7.533,,9.4660E+02,,1.0000E-12,,6.0634,6.0637,0.9083,,4.327,26.136,,,,,,,,,,,,
CalCOFI,2007SR,023,24,2007_023u,17-Jul-2020 23:33:16,17-Jul-2020 15:33:16,32.08548,-120.63816,090.0 070.0,090.0,070.0,506.000,510.182,,6.1092,,6.1098,,6.1095,34.3092,,34.3094,34.3103,,34.3119,34.3107,0.2947,,0.2902,0.2939,1.8076,,0.3741,0.4612,0.3776,12.816,12.8905,23.7385,78.605,,30.9666,27.3526,0.0317,,,,1.7829,,39.8240,38.920,26.9986,,26.9994,,0.6288,85.4532,,7.533,,9.4534E+02,,1.0000E-12,,6.0644,6.0649,0.9083,,4.257,26.111,,,,,,,,,,,,
CalCOFI,2007SR,023,24,2007_023u,17-Jul-2020 23:33:17,17-Jul-2020 15:33:17,32.08548,-120.63816,090.0 070.0,090.0,070.0,505.000,509.173,,6.1106,,6.1109,,6.1108,34.3093,,34.3095,34.3104,,34.3120,34.3108,0.2954,,0.2910,0.2947,1.8094,,0.3784,0.4657,0.3802,12.845,12.9208,23.7640,78.682,,31.1296,27.4468,0.0316,,,,1.7826,,39.8156,38.912,26.9985,,26.9994,,0.6290,85.4492,,7.533,,9.4451E+02,,1.0000E-12,,6.0658,6.0661,0.9083,,4.267,26.137,,,,,,,,,,,,
CalCOFI,2007SR,023,24,2007_023u,17-Jul-2020 23:33:18,17-Jul-2020 15:33:18,32.08548,-120.63816,090.0 070.0,090.0,070.0,504.000,508.163,,6.1137,,6.1138,,6.1138,34.3092,,34.3094,34.3106,,34.3122,34.3108,0.3000,,0.2958,0.2995,1.8109,,0.3820,0.4696,0.3846,13.045,13.1296,23.9398,78.747,,31.2672,27.6035,0.0317,,,,1.7824,,39.8099,38.906,26.9980,,26.9991,,0.6293,85.4427,,7.533,,9.4452E+02,,1.0000E-12,,6.0690,6.0691,0.9083,,4.334,26.161,,,,,,,,,,,,
CalCOFI,2007SR,023,24,2007_023u,17-Jul-2020 23:33:18,17-Jul-2020 15:33:18,32.08548,-120.63816,090.0 070.0,090.0,070.0,503.000,507.154,,6.1229,,6.1234,,6.1232,34.3088,,34.3090,34.3103,,34.3119,34.3105,0.2999,,0.2957,0.2994,1.8102,,0.3803,0.4678,0.3836,13.043,13.1275,23.9380,78.719,,31.2079,27.5730,0.0318,,,,1.7822,,39.8043,38.901,26.9966,,26.9976,,0.6293,85.4438,,7.533,,9.4592E+02,,1.0000E-12,,6.0782,6.0788,0.9083,,4.334,26.157,,,,,,,,,,,,
CalCOFI,2007SR,023,24,2007_023u,17-Jul-2020 23:33:19,17-Jul-2020 15:33:19,32.08548,-120.63816,090.0 070.0,090.0,070.0,502.000,506.144,,6.1368,,6.1381,,6.1375,34.3074,,34.3076,34.3088,,34.3104,34.3090,0.2998,,0.2956,0.2993,1.8093,,0.3781,0.4655,0.3824,13.037,13.1212,23.9328,78.679,,31.1233,27.5281,0.0326,,,,1.7819,,39.7959,38.892,26.9936,,26.9945,,0.6289,85.4524,,7.533,,9.4792E+02,,1.0000E-12,,6.0922,6.0935,0.9083,,4.333,26.153,,,,,,,,,,,,
CalCOFI,2007SR,023,24,2007_023u,17-Jul-2020 23:33:21,17-Jul-2020 15:33:21,32.08548,-120.63816,090.0 070.0,090.0,070.0,501.000,505.135,,6.1433,,6.1441,,6.1437,34.3069,,34.3071,34.3081,,34.3097,34.3084,0.3002,,0.2960,0.2997,1.8035,,0.3643,0.4507,0.3752,13.056,13.1411,23.9495,78.428,,30.5918,27.2707,0.0327,,,,1.7818,,39.7931,38.889,26.9924,,26.9933,,0.6287,85.4555,,7.533,,9.5065E+02,,1.0000E-12,,6.0987,6.0995,0.9083,,4.340,26.072,,,,,,,,,,,,
CalCOFI,2007SR,023,24,2007_023u,17-Jul-2020 23:33:22,17-Jul-2020 15:33:22,32.08548,-120.63816,090.0 070.0,090.0,070.0,500.000,504.125,,6.1474,,6.1469,,6.1472,34.3065,,34.3067,34.3080,,34.3096,34.3082,0.3052,,0.3012,0.3050,1.8005,,0.3571,0.4431,0.3741,13.274,13.3686,24.1411,78.298,,30.3166,27.2289,0.0320,,,,1.7825,,39.8127,38.909,26.9915,,26.9928,,0.6291,85.4473,,7.533,,9.5216E+02,,1.0000E-12,,6.1029,6.1024,0.9083,,4.413,26.031,,,,,,,,,,,,
CalCOFI,2007SR,023,24,2007_023u,17-Jul-2020 23:33:24,17-Jul-2020 15:33:24,32.08548,-120.63816,090.0 070.0,090.0,070.0,499.000,503.116,,6.1514,,6.1509,,6.1512,34.3062,,34.3064,34.3076,,34.3092,34.3078,0.3011,,0.2969,0.3007,1.8030,,0.3631,0.4494,0.3751,13.094,13.1807,23.9829,78.404,,30.5410,27.2620,0.0320,,,,1.7824,,39.8099,38.906,26.9908,,26.9920,,0.6292,85.4448,,7.533,,9.5214E+02,,1.0000E-12,,6.1070,6.1065,0.9083,,4.354,26.068,,,,,,,,,,,,
CalCOFI,2007SR,023,24,2007_023u,17-Jul-2020 23:33:25,17-Jul-2020 15:33:25,32.08548,-120.63816,090.0 070.0,090.0,070.0,498.000,502.106,,6.1566,,6.1568,,6.1567,34.3060,,34.3062,34.3073,,34.3089,34.3076,0.3050,,0.3010,0.3048,1.8025,,0.3619,0.4482,0.3765,13.265,13.3592,24.1332,78.383,,30.4966,27.3149,0.0315,,,,1.7818,,39.7931,38.889,26.9899,,26.9910,,0.6287,85.4563,,7.534,,9.5147E+02,,1.0000E-12,,6.1123,6.1124,0.9083,,4.411,26.065,,,,,,,,,,,,
CalCOFI,2007SR,023,24,2007_023u,17-Jul-2020 23:33:25,17-Jul-2020 15:33:25,32.08548,-120.63816,090.0 070.0,090.0,070.0,497.000,501.097,,6.1649,,6.1654,,6.1652,34.3058,,34.3060,34.3073,,34.3089,34.3075,0.3103,,0.3065,0.3103,1.8018,,0.3602,0.4464,0.3784,13.493,13.5972,24.3336,78.355,,30.4373,27.3855,0.0311,,,,1.7811,,39.7734,38.870,26.9888,,26.9898,,0.6288,85.4539,,7.533,,9.5023E+02,,1.0000E-12,,6.1206,6.1211,0.9083,,4.488,26.061,,,,,,,,,,,,
CalCOFI,2007SR,023,24,2007_023u,17-Jul-2020 23:33:26,17-Jul-2020 15:33:26,32.08548,-120.63816,090.0 070.0,090.0,070.0,496.000,500.087,,6.1794,,6.1800,,6.1797,34.3048,,34.3050,34.3063,,34.3079,34.3065,0.3067,,0.3028,0.3066,1.8009,,0.3581,0.4441,0.3754,13.336,13.4334,24.1956,78.315,,30.3526,27.2741,0.0318,,,,1.7805,,39.7566,38.853,26.9861,,26.9872,,0.6287,85.4562,,7.534,,9.4914E+02,,1.0000E-12,,6.1352,6.1358,0.9083,,4.437,26.056,,,,,,,,,,,,
CalCOFI,2007SR,023,24,2007_023u,17-Jul-2020 23:33:27,17-Jul-2020 15:33:27,32.08548,-120.63816,090.0 070.0,090.0,070.0,495.000,499.078,,6.1905,,6.1911,,6.1908,34.3044,,34.3046,34.3055,,34.3071,34.3059,0.3108,,0.3071,0.3109,1.8002,,0.3564,0.4423,0.3766,13.515,13.6202,24.3529,78.282,,30.2827,27.3178,0.0315,,,,1.7797,,39.7341,38.830,26.9844,,26.9852,,0.6287,85.4562,,7.533,,9.4833E+02,,1.0000E-12,,6.1464,6.1470,0.9083,,4.498,26.052,,,,,,,,,,,,
CalCOFI,2007SR,023,24,2007_023u,17-Jul-2020 23:33:28,17-Jul-2020 15:33:28,32.08548,-120.63816,090.0 070.0,090.0,070.0,494.000,498.069,,6.1987,,6.1991,,6.1989,34.3039,,34.3041,34.3053,,34.3069,34.3055,0.3122,,0.3085,0.3123,1.7995,,0.3547,0.4405,0.3764,13.574,13.6818,24.4048,78.256,,30.2277,27.3163,0.0321,,,,1.7786,,39.7032,38.799,26.9829,,26.9839,,0.6289,85.4515,,7.534,,9.4644E+02,,1.0000E-12,,6.1546,6.1550,0.9083,,4.518,26.048,,,,,,,,,,,,
CalCOFI,2007SR,023,24,2007_023u,17-Jul-2020 23:33:29,17-Jul-2020 15:33:29,32.08548,-120.63818,090.0 070.0,090.0,070.0,493.000,497.059,,6.2041,,6.2042,,6.2042,34.3039,,34.3041,34.3052,,34.3068,34.3055,0.3086,,0.3048,0.3086,1.7990,,0.3536,0.4393,0.3740,13.418,13.5190,24.2677,78.231,,30.1747,27.2212,0.0319,,,,1.7767,,39.6499,38.746,26.9822,,26.9832,,0.6297,85.4353,,7.534,,9.4820E+02,,1.0000E-12,,6.1601,6.1602,0.9083,,4.467,26.043,,,,,,,,,,,,
CalCOFI,2007SR,023,24,2007_023u,17-Jul-2020 23:33:30,17-Jul-2020 15:33:30,32.08548,-120.63818,090.0 070.0,090.0,070.0,492.000,496.050,,6.2084,,6.2090,,6.2087,34.3038,,34.3040,34.3051,,34.3067,34.3054,0.3146,,0.3110,0.3149,1.7933,,0.3399,0.4247,0.3698,13.684,13.7966,24.5015,77.984,,29.6518,27.0767,0.0317,,,,1.7741,,39.5769,38.673,26.9815,,26.9825,,0.6287,85.4558,,7.534,,9.5054E+02,,1.0000E-12,,6.1644,6.1650,0.9083,,4.556,25.963,,,,,,,,,,,,
CalCOFI,2007SR,023,24,2007_023u,17-Jul-2020 23:33:31,17-Jul-2020 15:33:31,32.08548,-120.63816,090.0 070.0,090.0,070.0,491.000,495.040,,6.2117,,6.2115,,6.2116,34.3038,,34.3040,34.3051,,34.3067,34.3054,0.3138,,0.3102,0.3140,1.7895,,0.3309,0.4151,0.3646,13.648,13.7590,24.4699,77.818,,29.3003,26.8851,0.0317,,,,1.7708,,39.4842,38.580,26.9811,,26.9822,,0.6292,85.4461,,7.535,,9.5401E+02,,1.0000E-12,,6.1678,6.1676,0.9083,,4.544,25.910,,,,,,,,,,,,
CalCOFI,2007SR,023,24,2007_023u,17-Jul-2020 23:33:32,17-Jul-2020 15:33:32,32.08548,-120.63816,090.0 070.0,090.0,070.0,490.000,494.031,,6.2179,,6.2192,,6.2186,34.3034,,34.3036,34.3049,,34.3065,34.3051,0.3132,,0.3096,0.3134,1.7926,,0.3383,0.4230,0.3682,13.618,13.7277,24.4435,77.953,,29.5862,27.0149,0.0316,,,,1.7671,,39.3803,38.476,26.9800,,26.9810,,0.6294,85.4416,,7.536,,9.5569E+02,,1.0000E-12,,6.1741,6.1754,0.9083,,4.535,25.959,,,,,,,,,,,,
CalCOFI,2007SR,023,24,2007_023u,17-Jul-2020 23:33:34,17-Jul-2020 15:33:34,32.08548,-120.63816,090.0 070.0,090.0,070.0,489.000,493.021,,6.2354,,6.2337,,6.2346,34.3016,,34.3018,34.3033,,34.3049,34.3034,0.3200,,0.3167,0.3205,1.7918,,0.3364,0.4209,0.3707,13.914,14.0367,24.7037,77.919,,29.5142,27.1090,0.0323,,,,1.7641,,39.2961,38.392,26.9763,,26.9779,,0.6290,85.4503,,7.536,,9.5321E+02,,1.0000E-12,,6.1916,6.1899,0.9083,,4.635,25.956,,,,,,,,,,,,
CalCOFI,2007SR,023,24,2007_023u,17-Jul-2020 23:33:35,17-Jul-2020 15:33:35,32.08548,-120.63816,090.0 070.0,090.0,070.0,488.000,492.012,,6.2421,,6.2421,,6.2421,34.3005,,34.3007,34.3017,,34.3033,34.3020,0.3150,,0.3114,0.3153,1.7912,,0.3349,0.4194,0.3674,13.699,13.8123,24.5147,77.892,,29.4570,26.9859,0.0326,,,,1.7628,,39.2596,38.355,26.9746,,26.9755,,0.6289,85.4517,,7.536,,9.5104E+02,,1.0000E-12,,6.1984,6.1984,0.9083,,4.564,25.952,,,,,,,,,,,,
CalCOFI,2007SR,023,24,2007_023u,17-Jul-2020 23:33:36,17-Jul-2020 15:33:36,32.08548,-120.63816,090.0 070.0,090.0,070.0,487.000,491.002,,6.2437,,6.2443,,6.2440,34.3002,,34.3004,34.3014,,34.3030,34.3017,0.3189,,0.3155,0.3194,1.7896,,0.3311,0.4153,0.3674,13.867,13.9877,24.6624,77.822,,29.3088,26.9856,0.0322,,,,1.7620,,39.2371,38.332,26.9741,,26.9750,,0.6291,85.4476,,7.536,,9.5024E+02,,1.0000E-12,,6.2001,6.2007,0.9083,,4.620,25.930,,,,,,,,,,,,
CalCOFI,2007SR,023,24,2007_023u,17-Jul-2020 23:33:36,17-Jul-2020 15:33:36,32.08548,-120.63817,090.0 070.0,090.0,070.0,486.000,489.993,,6.2453,,6.2457,,6.2455,34.3001,,34.3003,34.3012,,34.3028,34.3016,0.3268,,0.3238,0.3277,1.7826,,0.3144,0.3975,0.3626,14.210,14.3457,24.9639,77.521,,28.6715,26.8177,0.0321,,,,1.7612,,39.2147,38.310,26.9738,,26.9747,,0.6291,85.4471,,7.536,,9.5023E+02,,1.0000E-12,,6.2018,6.2022,0.9083,,4.735,25.830,,,,,,,,,,,,
CalCOFI,2007SR,023,24,2007_023u,17-Jul-2020 23:33:37,17-Jul-2020 15:33:37,32.08548,-120.63818,090.0 070.0,090.0,070.0,485.000,488.984,,6.2526,,6.2529,,6.2528,34.3002,,34.3004,34.3015,,34.3031,34.3018,0.3294,,0.3265,0.3304,1.7817,,0.3123,0.3952,0.3628,14.324,14.4647,25.0641,77.483,,28.5911,26.8276,0.0320,,,,1.7604,,39.1922,38.287,26.9729,,26.9740,,0.6290,85.4488,,7.536,,9.5103E+02,,1.0000E-12,,6.2091,6.2094,0.9083,,4.774,25.822,,,,,,,,,,,,
CalCOFI,2007SR,023,24,2007_023u,17-Jul-2020 23:33:38,17-Jul-2020 15:33:38,32.08548,-120.63818,090.0 070.0,090.0,070.0,484.000,487.974,,6.2657,,6.2691,,6.2674,34.2997,,34.2999,34.3016,,34.3032,34.3016,0.3311,,0.3283,0.3322,1.7844,,0.3187,0.4021,0.3672,14.400,14.5441,25.1309,77.598,,28.8345,26.9827,0.0318,,,,1.7597,,39.1725,38.268,26.9709,,26.9719,,0.6295,85.4383,,7.536,,9.5229E+02,,1.0000E-12,,6.2223,6.2256,0.9083,,4.800,25.870,,,,,,,,,,,,
CalCOFI,2007SR,023,24,2007_023u,17-Jul-2020 23:33:39,17-Jul-2020 15:33:39,32.08548,-120.63818,090.0 070.0,090.0,070.0,483.000,486.965,,6.3138,,6.3177,,6.3158,34.2985,,34.2987,34.3004,,34.3020,34.3004,0.3304,,0.3275,0.3315,1.7795,,0.3070,0.3896,0.3606,14.367,14.5096,25.1019,77.387,,28.3878,26.7449,0.0321,,,,1.7588,,39.1473,38.242,26.9637,,26.9647,,0.6298,85.4328,,7.536,,9.5400E+02,,1.0000E-12,,6.2703,6.2742,0.9083,,4.795,25.828,,,,,,,,,,,,
CalCOFI,2007SR,023,24,2007_023u,17-Jul-2020 23:33:40,17-Jul-2020 15:33:40,32.08548,-120.63817,090.0 070.0,090.0,070.0,482.000,485.955,,6.3313,,6.3322,,6.3318,34.2970,,34.2972,34.2984,,34.3000,34.2986,0.3331,,0.3304,0.3343,1.7806,,0.3096,0.3924,0.3634,14.487,14.6349,25.2074,77.433,,28.4852,26.8463,0.0320,,,,1.7576,,39.1136,38.209,26.9603,,26.9612,,0.6296,85.4379,,7.537,,9.5404E+02,,1.0000E-12,,6.2878,6.2887,0.9083,,4.837,25.852,,,,,,,,,,,,
CalCOFI,2007SR,023,24,2007_023u,17-Jul-2020 23:33:41,17-Jul-2020 15:33:41,32.08548,-120.63816,090.0 070.0,090.0,070.0,481.000,484.946,,6.3348,,6.3358,,6.3353,34.2970,,34.2972,34.2982,,34.2998,34.2985,0.3296,,0.3267,0.3306,1.7802,,0.3087,0.3914,0.3610,14.331,14.4720,25.0702,77.416,,28.4492,26.7597,0.0321,,,,1.7568,,39.0911,38.186,26.9598,,26.9606,,0.6291,85.4481,,7.537,,9.5358E+02,,1.0000E-12,,6.2914,6.2924,0.9083,,4.785,25.849,,,,,,,,,,,,
CalCOFI,2007SR,023,24,2007_023u,17-Jul-2020 23:33:42,17-Jul-2020 15:33:42,32.08548,-120.63816,090.0 070.0,090.0,070.0,480.000,483.937,,6.3357,,6.3357,,6.3357,34.2968,,34.2970,34.2980,,34.2996,34.2983,0.3351,,0.3324,0.3364,1.7800,,0.3082,0.3909,0.3637,14.574,14.7257,25.2838,77.406,,28.4280,26.8559,0.0311,,,,1.7569,,39.0939,38.189,26.9595,,26.9605,,0.6294,85.4402,,7.537,,9.5214E+02,,1.0000E-12,,6.2924,6.2924,0.9083,,4.866,25.845,,,,,,,,,,,,
CalCOFI,2007SR,023,24,2007_023u,17-Jul-2020 23:33:43,17-Jul-2020 15:33:43,32.08548,-120.63817,090.0 070.0,090.0,070.0,479.000,482.927,,6.3354,,6.3346,,6.3350,34.2967,,34.2969,34.2976,,34.2992,34.2981,0.3324,,0.3296,0.3336,1.7798,,0.3077,0.3904,0.3620,14.455,14.6015,25.1792,77.399,,28.4132,26.7962,0.0313,,,,1.7570,,39.0967,38.192,26.9594,,26.9603,,0.6294,85.4408,,7.537,,9.5326E+02,,1.0000E-12,,6.2922,6.2914,0.9083,,4.826,25.842,,,,,,,,,,,,
CalCOFI,2007SR,023,24,2007_023u,17-Jul-2020 23:33:44,17-Jul-2020 15:33:44,32.08548,-120.63818,090.0 070.0,090.0,070.0,478.000,481.918,,6.3282,,6.3275,,6.3279,34.2969,,34.2971,34.2980,,34.2996,34.2984,0.3305,,0.3276,0.3316,1.7799,,0.3080,0.3906,0.3611,14.373,14.5159,25.1072,77.403,,28.4217,26.7645,0.0320,,,,1.7566,,39.0855,38.181,26.9605,,26.9615,,0.6299,85.4307,,7.537,,9.5451E+02,,1.0000E-12,,6.2851,6.2844,0.9083,,4.798,25.839,,,,,,,,,,,,
CalCOFI,2007SR,023,24,2007_023u,17-Jul-2020 23:33:45,17-Jul-2020 15:33:45,32.08548,-120.63818,090.0 070.0,090.0,070.0,477.000,480.909,,6.3277,,6.3281,,6.3279,34.2972,,34.2974,34.2983,,34.2999,34.2987,0.3332,,0.3305,0.3344,1.7796,,0.3072,0.3899,0.3622,14.490,14.6380,25.2100,77.391,,28.3963,26.8032,0.0314,,,,1.7560,,39.0686,38.164,26.9608,,26.9617,,0.6290,85.4507,,7.537,,9.5592E+02,,1.0000E-12,,6.2847,6.2851,0.9083,,4.837,25.836,,,,,,,,,,,,
CalCOFI,2007SR,023,24,2007_023u,17-Jul-2020 23:33:46,17-Jul-2020 15:33:46,32.08548,-120.63818,090.0 070.0,090.0,070.0,476.000,479.899,,6.3312,,6.3321,,6.3317,34.2971,,34.2973,34.2983,,34.2999,34.2986,0.3393,,0.3368,0.3408,1.7792,,0.3063,0.3888,0.3648,14.755,14.9146,25.4430,77.373,,28.3582,26.9006,0.0327,,,,1.7552,,39.0462,38.141,26.9603,,26.9611,,0.6291,85.4484,,7.537,,9.5595E+02,,1.0000E-12,,6.2883,6.2892,0.9083,,4.926,25.832,,,,,,,,,,,,
CalCOFI,2007SR,023,24,2007_023u,17-Jul-2020 23:33:48,17-Jul-2020 15:33:48,32.08548,-120.63818,090.0 070.0,090.0,070.0,475.000,478.890,,6.3368,,6.3380,,6.3374,34.2970,,34.2972,34.2982,,34.2998,34.2985,0.3469,,0.3448,0.3488,1.7787,,0.3051,0.3876,0.3682,15.085,15.2591,25.7330,77.351,,28.3116,27.0223,0.0326,,,,1.7544,,39.0237,38.119,26.9594,,26.9602,,0.6297,85.4347,,7.537,,9.5595E+02,,1.0000E-12,,6.2940,6.2952,0.9083,,5.037,25.828,,,,,,,,,,,,
CalCOFI,2007SR,023,24,2007_023u,17-Jul-2020 23:33:49,17-Jul-2020 15:33:49,32.08548,-120.63818,090.0 070.0,090.0,070.0,474.000,477.881,,6.3691,,6.3672,,6.3682,34.2944,,34.2946,34.2965,,34.2981,34.2964,0.3427,,0.3404,0.3444,1.7771,,0.3013,0.3835,0.3640,14.902,15.0681,25.5722,77.283,,28.1676,26.8699,0.0326,,,,1.7533,,38.9928,38.088,26.9532,,26.9551,,0.6289,85.4515,,7.537,,9.5450E+02,,1.0000E-12,,6.3262,6.3243,0.9083,,4.980,25.823,,,,,,,,,,,,
CalCOFI,2007SR,023,24,2007_023u,17-Jul-2020 23:33:50,17-Jul-2020 15:33:50,32.08548,-120.63818,090.0 070.0,090.0,070.0,473.000,476.871,,6.3813,,6.3788,,6.3801,34.2932,,34.2934,34.2951,,34.2967,34.2951,0.3470,,0.3449,0.3489,1.7764,,0.2996,0.3817,0.3653,15.088,15.2623,25.7357,77.251,,28.0999,26.9178,0.0317,,,,1.7517,,38.9479,38.043,26.9507,,26.9525,,0.6295,85.4381,,7.537,,9.5404E+02,,1.0000E-12,,6.3385,6.3360,0.9083,,5.043,25.818,,,,,,,,,,,,
CalCOFI,2007SR,023,24,2007_023u,17-Jul-2020 23:33:50,17-Jul-2020 15:33:50,32.08548,-120.63818,090.0 070.0,090.0,070.0,472.000,475.862,,6.3895,,6.3899,,6.3897,34.2918,,34.2920,34.2928,,34.2944,34.2932,0.3434,,0.3411,0.3451,1.7757,,0.2979,0.3799,0.3625,14.935,15.1025,25.6012,77.219,,28.0321,26.8167,0.0313,,,,1.7500,,38.9002,37.995,26.9485,,26.9492,,0.6289,85.4515,,7.537,,9.5271E+02,,1.0000E-12,,6.3467,6.3472,0.9083,,4.993,25.814,,,,,,,,,,,,
CalCOFI,2007SR,023,24,2007_023u,17-Jul-2020 23:33:51,17-Jul-2020 15:33:51,32.08548,-120.63818,090.0 070.0,090.0,070.0,471.000,474.853,,6.3849,,6.3850,,6.3850,34.2929,,34.2931,34.2941,,34.2957,34.2944,0.3418,,0.3394,0.3434,1.7756,,0.2977,0.3797,0.3616,14.864,15.0284,25.5388,77.219,,28.0321,26.7855,0.0313,,,,1.7485,,38.8580,37.953,26.9499,,26.9508,,0.6294,85.4410,,7.537,,9.5215E+02,,1.0000E-12,,6.3423,6.3423,0.9083,,4.968,25.811,,,,,,,,,,,,
CalCOFI,2007SR,023,24,2007_023u,17-Jul-2020 23:33:52,17-Jul-2020 15:33:52,32.08548,-120.63818,090.0 070.0,090.0,070.0,470.000,473.843,,6.3897,,6.3896,,6.3897,34.2939,,34.2941,34.2952,,34.2968,34.2955,0.3417,,0.3393,0.3433,1.7752,,0.2967,0.3786,0.3610,14.859,15.0232,25.5344,77.199,,27.9898,26.7621,0.0317,,,,1.7469,,38.8131,37.908,26.9501,,26.9511,,0.6296,85.4372,,7.537,,9.5258E+02,,1.0000E-12,,6.3471,6.3470,0.9083,,4.967,25.807,,,,,,,,,,,,
CalCOFI,2007SR,023,24,2007_023u,17-Jul-2020 23:33:53,17-Jul-2020 15:33:53,32.08548,-120.63818,090.0 070.0,090.0,070.0,469.000,472.834,,6.3965,,6.3968,,6.3967,34.2935,,34.2937,34.2945,,34.2961,34.2949,0.3427,,0.3404,0.3444,1.7746,,0.2953,0.3771,0.3608,14.903,15.0691,25.5731,77.174,,27.9368,26.7550,0.0317,,,,1.7451,,38.7626,37.857,26.9489,,26.9497,,0.6293,85.4444,,7.537,,9.5457E+02,,1.0000E-12,,6.3540,6.3543,0.9083,,4.983,25.803,,,,,,,,,,,,
CalCOFI,2007SR,023,24,2007_023u,17-Jul-2020 23:33:54,17-Jul-2020 15:33:54,32.08548,-120.63818,090.0 070.0,090.0,070.0,468.000,471.825,,6.3982,,6.3981,,6.3982,34.2935,,34.2937,34.2947,,34.2963,34.2950,0.3501,,0.3481,0.3522,1.7743,,0.2946,0.3764,0.3643,15.223,15.4032,25.8543,77.162,,27.9114,26.8829,0.0317,,,,1.7430,,38.7036,37.798,26.9486,,26.9496,,0.6287,85.4553,,7.537,,9.5814E+02,,1.0000E-12,,6.3558,6.3557,0.9083,,5.090,25.800,,,,,,,,,,,,
CalCOFI,2007SR,023,24,2007_023u,17-Jul-2020 23:33:56,17-Jul-2020 15:33:56,32.08548,-120.63818,090.0 070.0,090.0,070.0,467.000,470.815,,6.3998,,6.4000,,6.3999,34.2933,,34.2935,34.2945,,34.2961,34.2948,0.3565,,0.3548,0.3589,1.7740,,0.2939,0.3756,0.3673,15.503,15.6955,26.1005,77.148,,27.8818,26.9912,0.0315,,,,1.7414,,38.6587,37.753,26.9483,,26.9492,,0.6297,85.4348,,7.537,,9.6108E+02,,1.0000E-12,,6.3575,6.3577,0.9083,,5.184,25.797,,,,,,,,,,,,
CalCOFI,2007SR,023,24,2007_023u,17-Jul-2020 23:33:57,17-Jul-2020 15:33:57,32.08548,-120.63818,090.0 070.0,090.0,070.0,466.000,469.806,,6.4080,,6.4072,,6.4076,34.2892,,34.2894,34.2913,,34.2929,34.2912,0.3584,,0.3568,0.3609,1.7735,,0.2927,0.3743,0.3676,15.585,15.7811,26.1726,77.125,,27.8331,27.0029,0.0320,,,,1.7408,,38.6418,37.736,26.9440,,26.9457,,0.6291,85.4478,,7.537,,9.5987E+02,,1.0000E-12,,6.3658,6.3649,0.9083,,5.212,25.793,,,,,,,,,,,,
CalCOFI,2007SR,023,24,2007_023u,17-Jul-2020 23:33:58,17-Jul-2020 15:33:58,32.08548,-120.63818,090.0 070.0,090.0,070.0,465.000,468.797,,6.4164,,6.4169,,6.4167,34.2882,,34.2884,34.2896,,34.2912,34.2898,0.3600,,0.3585,0.3626,1.7728,,0.2910,0.3725,0.3676,15.658,15.8573,26.2367,77.097,,27.7738,27.0053,0.0318,,,,1.7410,,38.6474,37.742,26.9420,,26.9431,,0.6287,85.4564,,7.537,,9.5559E+02,,1.0000E-12,,6.3742,6.3747,0.9083,,5.237,25.789,,,,,,,,,,,,